[[{"header":{"parameterUnit":"m.s-1","parameterCategory":1,"la1":30.2991,"la2":30.254,"lo1":-89.0895,"lo2":-89.0444,"dy":0.0017,"dx":0.0017,"nx":28,"ny":28,"refTime":"2025-02-12T03:00:00:Z","depth":0,"parameterNumber":2,"parameterNumberName":"U-component_of_WINDS"},"data":[0,0,0,0,0,0,0,0,0,0,0,0,0,0,0,0,0,0,0,0,0,0,0,0,0,0,0,0,0,0,0,0,0,0,0,0,0,0,0,0,0,0,0,0,0,0,0,0,0,0,0,0,0,0,0,0,0,0,-1.0315,-1.0314,0,-1.0262,-1.0262,-1.0261,-1.0233,-1.0233,-1.0233,-1.0233,-1.0174,-1.0172,-1.0171,0,0,0,0,0,0,0,0,0,0,0,0,0,-1.0386,-1.0385,-1.0315,-1.0314,-1.0314,-1.0262,-1.0262,-1.0261,-1.0233,-1.0233,-1.0233,-1.0233,-1.0174,-1.0173,-1.0171,0,0,0,0,0,0,0,0,0,0,0,0,0,-1.0347,-1.0385,-1.0315,-1.0294,-1.0291,-1.0263,-1.0262,-1.0261,-1.0233,-1.0233,-1.0233,-1.0233,-1.0175,-1.0173,-1.017,-1.0158,0,0,-1.0164,-1.0163,0,0,0,0,0,0,0,0,-1.0349,-1.0344,-1.0297,-1.0295,-1.0292,-1.0254,-1.0265,-1.0226,-1.0233,-1.0255,-1.0233,-1.0233,-1.02,-1.0196,-1.0186,-1.0155,-1.0152,-1.0163,-1.0162,-1.0161,-1.016,0,0,0,0,0,0,0,-1.0352,-1.0346,-1.0294,-1.0297,-1.0294,-1.0285,-1.0279,-1.0258,-1.0228,-1.0253,-1.0251,-1.0245,-1.0199,-1.0188,-1.0184,-1.0152,-1.0163,-1.0161,-1.016,-1.0159,-1.0106,-1.0106,0,0,0,0,0,0,-1.0358,-1.0348,-1.0296,-1.0292,-1.0321,-1.0284,-1.0277,-1.0266,-1.0229,-1.0223,-1.0245,-1.0244,-1.0192,-1.0187,-1.0182,-1.0164,-1.0161,-1.0159,-1.0157,-1.0106,-1.0106,-1.0106,0,0,0,0,0,0,-1.036,-1.0354,-1.0298,-1.032,-1.0312,-1.0283,-1.027,-1.0265,-1.0255,-1.0223,-1.0217,-1.024,-1.0192,-1.0185,-1.0164,-1.0162,-1.0158,-1.0156,-1.0106,-1.0106,-1.0106,-1.0129,0,0,0,0,0,0,-1.0362,-1.0355,-1.0351,-1.032,-1.0311,-1.0282,-1.027,-1.0264,-1.0252,-1.0249,-1.0217,-1.0211,-1.0191,-1.0168,-1.0162,-1.0159,-1.0154,-1.0106,-1.0106,-1.0106,-1.0128,-1.013,-1.0131,0,0,0,0,0,-1.0365,-1.0358,-1.0351,-1.0345,-1.0306,-1.0282,-1.0277,-1.0256,-1.0252,-1.0246,-1.0226,-1.0212,-1.0163,-1.0166,-1.0159,-1.0155,-1.0107,-1.0106,-1.0106,-1.0128,-1.0129,-1.0131,0,0,0,0,0,0,-1.0388,-1.0354,-1.0345,-1.0329,-1.0309,-1.0277,-1.027,-1.0258,-1.0238,-1.0236,-1.021,-1.0202,-1.0184,-1.0167,-1.0171,-1.014,-1.0133,-1.0132,-1.0152,-1.0153,-1.0155,-1.0159,-1.0152,0,0,0,0,0,-1.0391,-1.0377,-1.0347,-1.0335,-1.0326,-1.03,-1.0289,-1.0275,-1.0252,-1.0243,-1.0221,-1.0198,-1.0178,-1.0165,-1.0144,-1.0126,-1.0118,-1.012,-1.0121,-1.0122,-1.0121,-1.011,-1.011,-1.0106,-1.0106,-1.0106,0,0,-1.0398,-1.0377,-1.0369,-1.0339,-1.0322,-1.0306,-1.0293,-1.0277,-1.0264,-1.024,-1.0219,-1.0202,-1.0175,-1.0155,-1.0145,-1.0141,-1.012,-1.0122,-1.0124,-1.0121,-1.011,-1.011,-1.011,-1.0106,-1.0106,-1.0106,0,0,-1.0401,-1.0385,-1.0373,-1.0357,-1.0331,-1.0314,-1.0311,-1.0282,-1.027,-1.0249,-1.0231,-1.0214,-1.018,-1.0161,-1.0147,-1.0143,-1.0129,-1.0137,-1.0144,-1.0133,-1.0133,-1.0133,-1.0131,-1.0131,-1.0136,-1.0136,-1.0136,0,-1.0412,-1.0389,-1.0368,-1.0353,-1.034,-1.0319,-1.0306,-1.029,-1.0259,-1.025,-1.0246,-1.0202,-1.0182,-1.0157,-1.0157,-1.0146,-1.0141,-1.0141,-1.0135,-1.0135,-1.0135,-1.0133,-1.0132,-1.0137,-1.0137,-1.0137,-1.0137,0,-1.0403,-1.0386,-1.038,-1.0352,-1.0338,-1.0324,-1.03,-1.0288,-1.0275,-1.0258,-1.0236,-1.0211,-1.0185,-1.0178,-1.0165,-1.0151,-1.0149,-1.0141,-1.0133,-1.0137,-1.0134,-1.0133,-1.0139,-1.0139,-1.0138,-1.0138,0,0,-1.0419,-1.038,-1.0378,-1.0365,-1.0336,-1.0322,-1.0306,-1.0282,-1.0272,-1.0251,-1.0236,-1.0208,-1.02,-1.0184,-1.0168,-1.0158,-1.0156,-1.015,-1.0149,-1.0152,-1.0139,-1.0146,-1.0145,-1.0147,-1.0147,-1.0147,-1.0141,0,-1.0417,-1.0391,-1.0372,-1.0351,-1.0336,-1.0316,-1.0302,-1.0282,-1.0265,-1.0248,-1.0229,-1.0209,-1.02,-1.019,-1.018,-1.0159,-1.0153,-1.0159,-1.0132,-1.0131,-1.0139,-1.0144,-1.0151,-1.0147,-1.014,-1.014,-1.014,0,-1.0412,-1.0394,-1.0372,-1.0345,-1.0337,-1.0326,-1.0302,-1.0286,-1.0262,-1.0251,-1.0233,-1.0217,-1.0198,-1.0193,-1.0166,-1.017,-1.0158,-1.0145,-1.0145,-1.0141,-1.0135,-1.0139,-1.0145,-1.0144,-1.0138,-1.0138,-1.0138,0,-1.0426,-1.0395,-1.0378,-1.0368,-1.0335,-1.0327,-1.0313,-1.0289,-1.0276,-1.0254,-1.0245,-1.0221,-1.0208,-1.0189,-1.0167,-1.0165,-1.0141,-1.0134,-1.013,-1.0131,-1.0126,-1.0126,-1.0129,-1.0119,-1.0119,-1.0119,-1.0119,0,-1.0426,-1.0413,-1.0384,-1.0373,-1.0358,-1.0336,-1.0321,-1.0305,-1.0284,-1.0269,-1.0249,-1.0235,-1.0207,-1.0188,-1.017,-1.015,-1.0144,-1.0133,-1.0128,-1.0135,-1.0136,-1.0126,-1.0125,-1.0118,-1.0119,-1.0119,-1.0119,0,-1.0438,-1.0418,-1.0398,-1.0369,-1.0362,-1.0352,-1.0326,-1.0314,-1.0297,-1.0278,-1.0272,-1.0244,-1.0222,-1.0198,-1.0167,-1.0154,-1.0135,-1.0128,-1.0144,-1.0141,-1.0138,-1.0138,-1.0133,-1.0131,-1.0124,-1.0124,-1.0124,0,-1.044,-1.043,-1.04,-1.039,-1.0376,-1.0359,-1.0346,-1.0323,-1.031,-1.0282,-1.0273,-1.025,-1.023,-1.0195,-1.0171,-1.0147,-1.0139,-1.0139,-1.0135,-1.0142,-1.0138,-1.0139,-1.0137,-1.014,-1.014,-1.014,-1.014,0,-1.0444,-1.0434,-1.0417,-1.0396,-1.0381,-1.0363,-1.0344,-1.0336,-1.031,-1.0295,-1.0273,-1.0258,-1.0227,-1.0203,-1.0177,-1.016,-1.0145,-1.0142,-1.014,-1.0146,-1.0155,-1.0149,-1.0146,-1.0142,-1.0142,-1.0142,-1.0142,-1.0142,-1.045,-1.044,-1.0418,-1.0399,-1.0383,-1.0366,-1.0354,-1.0335,-1.0317,-1.0291,-1.0278,-1.0256,-1.0231,-1.0194,-1.0178,-1.0159,-1.0154,-1.0151,-1.015,-1.0149,-1.0151,-1.0159,-1.0154,-1.0154,-1.0154,-1.0153,-1.0153,0,-1.0453,-1.0438,-1.0421,-1.0396,-1.0381,-1.037,-1.0349,-1.0336,-1.0317,-1.0296,-1.0278,-1.0252,-1.0229,-1.0203,-1.0178,-1.0168,-1.0161,-1.0162,-1.0162,-1.0159,-1.0157,-1.0161,-1.0169,-1.0169,-1.0169,-1.0169,-1.0169,-1.0169,-1.0453,-1.0436,-1.0424,-1.0398,-1.0382,-1.0362,-1.035,-1.0333,-1.0317,-1.0289,-1.0271,-1.0255,-1.0232,-1.0205,-1.0183,-1.0176,-1.0167,-1.0171,-1.0162,-1.016,-1.0159,-1.0158,-1.0162,-1.0169,-1.0169,-1.0165,-1.0165,-1.0165]},{"header":{"parameterUnit":"m.s-1","parameterCategory":1,"la1":30.2991,"la2":30.254,"lo1":-89.0895,"lo2":-89.0444,"dy":0.0017,"dx":0.0017,"nx":28,"ny":28,"refTime":"2025-02-12T03:00:00:Z","depth":0,"parameterNumber":3,"parameterNumberName":"V-component_of_WINDS"},"data":[0,0,0,0,0,0,0,0,0,0,0,0,0,0,0,0,0,0,0,0,0,0,0,0,0,0,0,0,0,0,0,0,0,0,0,0,0,0,0,0,0,0,0,0,0,0,0,0,0,0,0,0,0,0,0,0,0,0,5.2621,5.2621,0,5.2574,5.2574,5.2573,5.2524,5.2523,5.2522,5.2522,5.247,5.2469,5.2468,0,0,0,0,0,0,0,0,0,0,0,0,0,5.2669,5.2668,5.2621,5.2621,5.262,5.2574,5.2574,5.2573,5.2524,5.2523,5.2522,5.2521,5.247,5.2469,5.2468,0,0,0,0,0,0,0,0,0,0,0,0,0,5.2637,5.2668,5.2622,5.259,5.2587,5.2574,5.2574,5.2573,5.2524,5.2523,5.2522,5.2521,5.247,5.2469,5.2468,5.2481,0,0,5.2465,5.2464,0,0,0,0,0,0,0,0,5.2639,5.2636,5.2595,5.2592,5.2589,5.2554,5.2571,5.2542,5.2524,5.2548,5.2522,5.2521,5.2498,5.2495,5.2488,5.2479,5.2477,5.2465,5.2464,5.2464,5.2463,0,0,0,0,0,0,0,5.2642,5.2637,5.2603,5.2595,5.2591,5.2579,5.2573,5.2565,5.2529,5.2546,5.2542,5.2537,5.2496,5.2489,5.2487,5.2476,5.2465,5.2464,5.2463,5.2463,5.248,5.2481,0,0,0,0,0,0,5.2649,5.264,5.2604,5.2601,5.2612,5.2579,5.2572,5.2566,5.2529,5.2523,5.2538,5.2535,5.2492,5.2488,5.2485,5.2501,5.2464,5.2463,5.2462,5.2479,5.2481,5.2482,0,0,0,0,0,0,5.265,5.2646,5.2606,5.2619,5.2613,5.2579,5.2572,5.2566,5.2559,5.2524,5.2517,5.2538,5.2491,5.2486,5.2484,5.2498,5.2462,5.2461,5.2478,5.248,5.2481,5.2531,0,0,0,0,0,0,5.2651,5.2647,5.2651,5.262,5.2613,5.2606,5.2573,5.2565,5.2557,5.2553,5.2521,5.2515,5.249,5.2486,5.2483,5.2496,5.246,5.2476,5.2479,5.2481,5.2528,5.2535,5.254,0,0,0,0,0,5.2653,5.2665,5.2652,5.2647,5.2618,5.2607,5.2603,5.2574,5.2558,5.2563,5.2541,5.2516,5.2497,5.2486,5.2482,5.2495,5.2475,5.2478,5.248,5.2526,5.2533,5.254,0,0,0,0,0,0,5.2696,5.266,5.2645,5.2647,5.2631,5.2599,5.2603,5.2583,5.2569,5.2566,5.253,5.2523,5.2526,5.251,5.2498,5.2508,5.2483,5.2485,5.2519,5.2526,5.2531,5.2535,5.2459,0,0,0,0,0,5.2706,5.2701,5.267,5.2675,5.2668,5.2638,5.2631,5.2612,5.2593,5.2585,5.2563,5.2545,5.2536,5.2529,5.2518,5.2526,5.252,5.2533,5.2539,5.2544,5.2546,5.2553,5.256,5.249,5.249,5.249,0,0,5.2726,5.2706,5.2704,5.2683,5.2668,5.2665,5.2632,5.2627,5.2625,5.2584,5.2582,5.2565,5.2543,5.2547,5.2548,5.2534,5.2565,5.2547,5.2552,5.2551,5.2556,5.2563,5.2569,5.2492,5.2492,5.2491,0,0,5.2761,5.2745,5.2749,5.2736,5.2715,5.2695,5.2697,5.2669,5.2657,5.2655,5.2626,5.2622,5.2605,5.2592,5.2583,5.2618,5.2596,5.2616,5.2646,5.2653,5.2659,5.2663,5.2679,5.2684,5.2618,5.2618,5.2618,0,5.2788,5.2781,5.2753,5.2753,5.2746,5.2712,5.2717,5.2705,5.2681,5.2677,5.2662,5.2644,5.2626,5.2629,5.2638,5.2631,5.2633,5.2619,5.266,5.2665,5.2669,5.2683,5.2689,5.2621,5.262,5.262,5.262,0,5.2817,5.2814,5.282,5.2801,5.2794,5.2796,5.2769,5.2766,5.2748,5.273,5.273,5.2709,5.2695,5.2694,5.2674,5.2694,5.2687,5.2667,5.2641,5.2679,5.2692,5.2697,5.2625,5.2624,5.2623,5.2622,0,0,5.2874,5.2844,5.2847,5.284,5.2817,5.2813,5.2815,5.2803,5.2803,5.2788,5.279,5.2779,5.2762,5.2752,5.2732,5.2738,5.2772,5.2717,5.2716,5.273,5.2796,5.2813,5.2819,5.2757,5.2758,5.2758,5.2799,0,5.2907,5.2909,5.2887,5.2895,5.2893,5.2864,5.2866,5.2852,5.2837,5.2833,5.2815,5.281,5.2786,5.278,5.2785,5.2766,5.2785,5.2763,5.2759,5.2759,5.2767,5.2825,5.2841,5.288,5.2803,5.2804,5.2805,0,5.2943,5.2935,5.2945,5.2926,5.2924,5.2926,5.2916,5.2913,5.2898,5.2886,5.2878,5.2856,5.2858,5.2834,5.2837,5.2823,5.282,5.2812,5.2813,5.2811,5.2785,5.2827,5.2892,5.2898,5.2812,5.2811,5.2811,0,5.2987,5.2978,5.2984,5.2978,5.2955,5.2959,5.2949,5.2933,5.2929,5.2921,5.2918,5.2909,5.2904,5.2898,5.2875,5.2859,5.2882,5.2855,5.2874,5.2875,5.288,5.288,5.2946,5.2876,5.2876,5.2876,5.2876,0,5.3026,5.3034,5.3004,5.3008,5.3017,5.2991,5.3,5.2987,5.2975,5.2976,5.2949,5.2951,5.292,5.2918,5.29,5.2908,5.2905,5.2897,5.2892,5.29,5.2901,5.2898,5.2895,5.2877,5.2877,5.2877,5.2877,0,5.3076,5.3056,5.3061,5.3041,5.3036,5.3044,5.3027,5.303,5.3014,5.3017,5.3016,5.2992,5.2989,5.2966,5.2957,5.2945,5.296,5.2949,5.2966,5.2963,5.2984,5.2983,5.3051,5.306,5.2984,5.2984,5.2985,0,5.3102,5.3108,5.309,5.309,5.3083,5.3083,5.308,5.3056,5.3054,5.3041,5.3046,5.3042,5.3038,5.3036,5.3017,5.3012,5.3002,5.3026,5.3,5.301,5.3005,5.3005,5.3007,5.3032,5.3032,5.3033,5.3034,0,5.3152,5.3143,5.3141,5.3137,5.3135,5.313,5.3123,5.3125,5.3099,5.3098,5.3097,5.3094,5.3088,5.3085,5.3078,5.3067,5.3047,5.3043,5.3047,5.3055,5.3066,5.3063,5.2983,5.3041,5.304,5.304,5.3039,5.3039,5.3192,5.3197,5.3187,5.3187,5.318,5.3176,5.3179,5.3166,5.3165,5.316,5.3146,5.3148,5.3137,5.3125,5.3117,5.3119,5.3106,5.3112,5.3113,5.3116,5.3121,5.3066,5.3117,5.3117,5.3116,5.3116,5.3116,0,5.3242,5.3235,5.3235,5.3229,5.323,5.3213,5.3206,5.3207,5.321,5.3202,5.32,5.32,5.3199,5.3182,5.3179,5.3184,5.3175,5.3184,5.3183,5.3182,5.3131,5.3129,5.3192,5.3192,5.3191,5.3191,5.3191,5.3191,5.3268,5.3278,5.3269,5.3277,5.3269,5.3273,5.3271,5.3267,5.3261,5.3264,5.3264,5.3254,5.3243,5.324,5.3239,5.3234,5.3235,5.3248,5.324,5.3193,5.3185,5.3178,5.3176,5.3248,5.3248,5.3291,5.3291,5.3292]}]]